Home   Weather   Recife   Past weeks
Flag for Brazil

Past Weather in Recife, Pernambuco, Brazil — Yesterday and Last 2 Weeks

Now
81 °F

Scattered showers. Partly sunny.


Feels Like: 87 °F
Forecast: 86 / 78 °F
Wind: 6 mph from Southwest

Location: Recife Aeroporto

Current Time: Mar 31, 2020 at 10:16:16 am

Latest Report: Mar 31, 2020 at 9:00 am


Visibility: N/A

Pressure: 29.89 "Hg

Humidity: 89%

Dew Point: 77 °F

Location of RecifeLocation

Past Weather in Recife — Graph

°F

Recife Temperature Yesterday

Maximum temperature yesterday: 84 °F (at 1:00 pm)
Minimum temperature yesterday: 77 °F (at 4:00 am)
Average temperature yesterday: 81 °F

High & Low Weather Summary for the Past Weeks

 TemperatureHumidityPressure
High91 °F (Mar 22, 1:00 pm)94% (Mar 17, 7:00 am)29.95 "Hg (Mar 17, 7:00 am)
Low75 °F (Mar 17, 6:00 am)55% (Mar 19, 12:00 pm)29.77 "Hg (Mar 26, 4:00 pm)
Average83 °F77%29.86 "Hg
* Reported Mar 16 9:00 am — Mar 31 9:00 am, Recife. Weather by CustomWeather, © 2020

Note: Actual official high and low records may vary slightly from our data, if they occured in-between our weather recording intervals... More about our weather records

Recife Weather History for the Previous 24 Hours

Scroll right to see more
 ConditionsComfort  
Time TempWeatherWind HumidityBarometerVisibility
9:00 am
Tue, Mar 31
81 °FScattered showers. Partly sunny.6 mph89%29.89 "HgN/A
8:00 am79 °FLight rain. Partly sunny.6 mph94%29.89 "Hg3 mi
7:00 am77 °FScattered showers. Broken clouds.5 mph89%29.86 "Hg5 mi
6:00 am77 °FBroken clouds.3 mph94%29.83 "HgN/A
5:00 am77 °FPassing clouds.5 mph94%29.80 "HgN/A
4:00 am77 °FPassing clouds.3 mph94%29.80 "HgN/A
3:00 am77 °FPartly cloudy.6 mph94%29.80 "HgN/A
2:00 am77 °FScattered showers. Partly cloudy.5 mph94%29.80 "Hg5 mi
1:24 am77 °FRain. Fog.5 mph94%29.83 "Hg2 mi
1:00 am79 °FScattered showers. Passing clouds.5 mph89%29.83 "HgN/A
12:00 am79 °FPassing clouds.2 mph89%29.83 "HgN/A
11:00 pm
Mon, Mar 30
79 °FPassing clouds.3 mph94%29.86 "HgN/A
10:00 pm81 °FPassing clouds.5 mph89%29.86 "HgN/A
9:00 pm81 °FPassing clouds.5 mph89%29.86 "HgN/A
8:00 pm82 °FPassing clouds.5 mph79%29.86 "HgN/A
7:00 pm82 °FPassing clouds.5 mph79%29.83 "HgN/A
6:00 pm82 °FPassing clouds.9 mph79%29.83 "HgN/A
5:00 pm82 °FBroken clouds.9 mph79%29.80 "HgN/A
4:00 pm82 °FPartly sunny.10 mph79%29.80 "HgN/A
3:00 pm82 °FScattered showers. Partly sunny.8 mph79%29.80 "HgN/A
2:00 pm84 °FBroken clouds.7 mph74%29.80 "HgN/A
1:00 pm84 °FBroken clouds.10 mph74%29.83 "HgN/A
12:00 pm82 °FBroken clouds.6 mph74%29.83 "HgN/A
11:00 am82 °FBroken clouds.6 mph79%29.86 "HgN/A
10:00 am81 °FScattered showers. Broken clouds.2 mph89%29.89 "Hg5 mi
Weather by CustomWeather, © 2020

See weather overview

Advertising